Regional Weather Roundup
Issued by NWS Green Bay, WI

Home | Current Version | Previous Version | Text Only | Print | Product List | Glossary On
Versions: 1 2 3 4 5 6 7 8 9 10 11 12 13 14 15 16 17 18 19 20 21 22 23 24 25 26 27 28 29 30 31 32 33 34 35 36 37 38 39 40 41 42 43 44 45 46 47 48 49 50
000
ASUS43 KGRB 232211
RWRGRB

NORTH-CENTRAL AND NORTHEAST WISCONSIN REGIONAL WEATHER ROUNDUP
NATIONAL WEATHER SERVICE GREEN BAY WI
500 PM CDT SUN APR 23 2017

WIZ005-009-010>012-018-019-232300-
NORTH CENTRAL WISCONSIN

CITY           SKY/WX    TMP DP  RH WIND       PRES   REMARKS
IRONWOOD       CLOUDY    39  32  76 E12       30.12F
MANITOWISH WTR CLOUDY    39  35  86 NE7       30.09S
ARBOR VITAE    MOSUNNY   44  35  71 E6        30.07S
EAGLE RIVER    PTSUNNY   42  32  67 NE9       30.09R
LAND O LAKES   CLOUDY    40  32  71 CALM      30.12R
RHINELANDER    CLOUDY    50  36  58 NE7       30.06S
PHILLIPS       PTSUNNY   50  38  62 N12       30.03F
ANTIGO         SUNNY     55  37  52 E10       30.04S
TOMAHAWK       SUNNY     55  37  51 NE7       30.04S
MERRILL        SUNNY     60  42  51 CALM      30.02S
$$

WIZ013-073-232300-
NORTHEAST WISCONSIN

CITY           SKY/WX    TMP DP  RH WIND       PRES   REMARKS
IRON MOUNTAIN  MOSUNNY   43  27  53 VRB5      30.11S
MARINETTE      SUNNY     40  31  70 E15       30.14S
OCONTO         SUNNY     42  32  67 E14G21    30.11F
$$

WIZ017-030-035>037-045-232300-
CENTRAL WISCONSIN

CITY           SKY/WX    TMP DP  RH WIND       PRES   REMARKS
MEDFORD        MOSUNNY   62  42  47 W6        29.99F
WAUSAU         MOSUNNY   63  40  42 CALM      29.99F
MOSINEE        MOSUNNY   66  37  34 NW3       30.01S
MARSHFIELD     MOSUNNY   68  36  30 W7        29.98S
WISC RAPIDS    PTSUNNY   66  43  43 SE12      30.00R
STEVENS POINT  PTSUNNY   57  42  57 E14       30.02R
WAUPACA        SUNNY     60  42  52 NE14      30.04S
SHAWANO        SUNNY     55  39  54 E12       30.07F
CLINTONVILLE   SUNNY     52  36  54 SE12      30.06S
WAUTOMA          N/A     61  44  53 E13G18    30.02
$$

WIZ038-039-048-051-232300-
FOX VALLEY

CITY           SKY/WX    TMP DP  RH WIND       PRES   REMARKS
NWS GREEN BAY  SUNNY     49  39  68 NE18      30.09F
APPLETON       MOSUNNY   54  37  54 NE15G21   30.04F
OSHKOSH        SUNNY     55  43  63 E13       30.04F
FOND DU LAC    SUNNY     54  39  57 E17       30.05S
$$

WIZ022-050-052-232300-
EAST CENTRAL WISCONSIN

CITY           SKY/WX    TMP DP  RH WIND       PRES   REMARKS
EPHRAIM        FAIR      42  30  62 NE12G17   30.12F
WASHINGTON ISL FAIR      41  26  53 NE10      30.13F
STURGEON BAY   SUNNY     42  32  67 E10       30.12F
MANITOWOC      SUNNY     43  33  68 NE13G22   30.11F
SHEBOYGAN      SUNNY     43  36  76 NE22      30.10S
$$

LMZ563-521-522-541>543-232300-
LAKESHORE

STATION/POSITION TIME  TEMP    WIND        PRES    VSBY  WAVE
                       AIR SEA DIR/SP/G                  HT/PER
                 (UTC) (F)     (DEG/KT/KT) (MB)    (MI)  (FT/S)
SHEBOYGAN LKSHOR 2200   38      30/ 20/ 21 1019.6F
KEWAUNEE LKSHORE 2148   39      50/ 13/ 19 1019.4F
NORTHPORT PIER   2140   40      20/  8/ 12 1020.7F
N MID LAKE BUOY  2150   37 37   60/ 10/ 10 1022.0F         2/ 4
CHAMBERS ISLAND  2140   38      40/ 11/ 18 1020.3S
MENOMINEE LKSHOR 2148   39      50/ 16/ 19 1019.6F
$$



USA.gov is the U.S. government's official web portal to all federal, state and local government web resources and services.